Location: Namasale
(1.5000°N, 32.6167°E)
Time: 18:56:37
(UTC+00:00)

Vanguard 1 Rocket - Pass Details

Date: 20 April 2021
Orbit: 652 x 4224 km, 34.3° (Epoch: 10 May)

Event Time Altitude Azimuth Distance (km) Brightness Sun altitude
Rises 04:55:38 0° 225° (SW) 8,417 11.8 16.7°
Reaches altitude 10° 05:02:32 10° 218° (SW) 7,170 11.6 18.4°
Maximum altitude 05:23:24 44° 153° (SSE) 3,566 10.8 23.5°
Drops below altitude 10° 05:35:10 10° 84° (E) 4,255 12.6 26.4°
Sets 05:38:00 0° 77° (ENE) 4,877 12.4 27.1°
